Regional Weather Roundup
Issued by NWS

Home | Current Version | Previous Version | Graphics & Text | Print | Product List | Glossary On
Versions: 1 2 3 4 5 6 7 8 9 10 11 12 13 14 15 16 17 18 19 20 21 22 23 24 25 26 27 28
000
ASUS45 KBOI 190010
RWRID
WEATHER ROUNDUP FOR IDAHO
NATIONAL WEATHER SERVICE BOISE ID
600 PM MDT FRI APR 18 2014

NOTE: "FAIR" INDICATES FEW OR NO CLOUDS BELOW 12000 FEET
WITH NO SIGNIFICANT WEATHER AND/OR OBSTRUCTIONS TO VISIBILITY

IDZ012-014-190100-
SOUTHWEST IDAHO


CITY           SKY/WX    TMP DP  RH WIND       PRES   REMARKS
BOISE          SUNNY     60  24  25 N10G17    29.97S
CALDWELL       SUNNY     63  27  25 NE12G18   29.98F
MOUNTAIN HOME  SUNNY     63  23  21 N14       29.95F
$$

IDZ016-017-190100-
SOUTHCENTRAL IDAHO


CITY           SKY/WX    TMP DP  RH WIND       PRES   REMARKS
BURLEY         SUNNY     58  23  26 W13G21    29.95F
JEROME         SUNNY     59  25  27 W17       29.96S
TWIN FALLS     SUNNY     61  28  28 NW16      29.96S
$$

IDZ019>023-190100-
SOUTHEAST IDAHO


CITY           SKY/WX    TMP DP  RH WIND       PRES   REMARKS
IDAHO FALLS    SUNNY     59  22  24 SW29G38   29.90R
POCATELLO      SUNNY     59  23  25 W25       29.96S
REXBURG        SUNNY     57  23  26 SW28G38   29.86S
$$

IDZ006-010-011-018-031-032-190100-
CENTRAL IDAHO MOUNTAINS


CITY           SKY/WX    TMP DP  RH WIND       PRES   REMARKS
MCCALL         SUNNY     48  11  22 W10       29.98S
HAILEY         MOSUNNY   55   9  15 NW18G29   29.94R
STANLEY          N/A     44  17  33 NW8G17    29.99R
SALMON         MOSUNNY   54  18  24 N14G20    29.91R
CHALLIS        SUNNY     55   5  13 W15G21    29.92R
$$

IDZ002-004-006-007-026-190100-
NORTHERN IDAHO


CITY           SKY/WX    TMP DP  RH WIND       PRES   REMARKS
LEWISTON       MOSUNNY   57  22  25 NW9G21    29.99F
LOWELL           N/A     55  28  35 VRB3      29.99S
COEUR D`ALENE  MOSUNNY   52  28  40 SW16G23   29.97S
MULLAN PASS    CLOUDY    28  23  81 VRB7G21   29.94R WCI  21
$$



USA.gov is the U.S. government's official web portal to all federal, state and local government web resources and services.